When you browse on this site, cookies collect data to enhance your experience and personalize the content and advertising you see.
Visit our Privacy Policy to learn more. By continuing to use the site, you agree to this use of cookies and data.
  • In Österreich
  • Länderverzeichnis
  • Für 7 Tage
  • Wassertemperatur
  • Satellitenkarten
  • Wetterkarte
  • News
  • Widgets
  • user-avatar
    Anmelden

    Stündliche Wetter Albany

    Heute, 18 Januar, Freitag

    Zeit Temperatur Niederschläge Wind Luftdruck Luftfeuchtigkeit
    00:00 +15°C° 0 mm 2 m/S 759 mmHg 75%
    01:00 +15°C° 0 mm 2 m/S 759 mmHg 78%
    02:00 +14°C° 0 mm 1 m/S 759 mmHg 79%
    03:00 +14°C° 0 mm 1 m/S 759 mmHg 80%
    04:00 +13°C° 0 mm 1 m/S 759 mmHg 82%
    05:00 +12°C° 0 mm 0 m/S 760 mmHg 83%
    06:00 +14°C° 0 mm 0 m/S 760 mmHg 74%
    07:00 +18°C° 0 mm 1 m/S 760 mmHg 65%
    08:00 +21°C° 0 mm 1 m/S 761 mmHg 55%
    09:00 +22°C° 0 mm 1 m/S 761 mmHg 50%
    10:00 +24°C° 0 mm 2 m/S 761 mmHg 44%
    11:00 +25°C° 0 mm 2 m/S 761 mmHg 39%
    12:00 +26°C° 0 mm 3 m/S 761 mmHg 39%
    13:00 +26°C° 0 mm 4 m/S 761 mmHg 40%
    14:00 +26°C° 0 mm 4 m/S 760 mmHg 40%
    15:00 +25°C° 0 mm 5 m/S 760 mmHg 44%
    16:00 +23°C° 0 mm 5 m/S 760 mmHg 48%
    17:00 +22°C° 0 mm 5 m/S 760 mmHg 52%
    18:00 +21°C° 0 mm 5 m/S 761 mmHg 58%
    19:00 +19°C° 0 mm 4 m/S 761 mmHg 64%
    20:00 +18°C° 0 mm 4 m/S 761 mmHg 70%
    21:00 +17°C° 0 mm 4 m/S 761 mmHg 74%
    22:00 +17°C° 0 mm 4 m/S 762 mmHg 77%
    23:00 +15°C° 0 mm 4 m/S 762 mmHg 81%

    Morgen, 19 Januar, Samstag

    Zeit Temperatur Niederschläge Wind Luftdruck Luftfeuchtigkeit
    00:00 +15°C° 0 mm 4 m/S 762 mmHg 83%
    01:00 +14°C° 0 mm 4 m/S 761 mmHg 84%
    02:00 +14°C° 0 mm 4 m/S 761 mmHg 86%
    03:00 +14°C° 0 mm 4 m/S 761 mmHg 87%
    04:00 +14°C° 0 mm 4 m/S 761 mmHg 87%
    05:00 +13°C° 0 mm 4 m/S 761 mmHg 88%
    06:00 +15°C° 0 mm 4 m/S 761 mmHg 77%
    07:00 +19°C° 0 mm 4 m/S 761 mmHg 67%
    08:00 +21°C° 0 mm 4 m/S 761 mmHg 56%
    09:00 +23°C° 0 mm 4 m/S 761 mmHg 48%
    10:00 +27°C° 0 mm 4 m/S 761 mmHg 40%
    11:00 +30°C° 0 mm 4 m/S 760 mmHg 32%
    12:00 +32°C° 0 mm 4 m/S 760 mmHg 32%
    13:00 +33°C° 0 mm 5 m/S 759 mmHg 33%
    14:00 +33°C° 0 mm 5 m/S 759 mmHg 33%
    15:00 +32°C° 0 mm 5 m/S 759 mmHg 39%
    16:00 +29°C° 0 mm 6 m/S 758 mmHg 45%
    17:00 +28°C° 0 mm 6 m/S 758 mmHg 51%
    18:00 +26°C° 0 mm 5 m/S 758 mmHg 59%
    19:00 +23°C° 0 mm 5 m/S 758 mmHg 67%
    20:00 +21°C° 0 mm 4 m/S 759 mmHg 75%
    21:00 +20°C° 0 mm 4 m/S 759 mmHg 77%
    22:00 +19°C° 0 mm 4 m/S 759 mmHg 80%
    23:00 +19°C° 0 mm 3 m/S 759 mmHg 82%

    übermorgen, 20 Januar, Sonntag

    Zeit Temperatur Niederschläge Wind Luftdruck Luftfeuchtigkeit
    00:00 +19°C° 0 mm 3 m/S 759 mmHg 82%
    01:00 +19°C° 0 mm 3 m/S 758 mmHg 82%
    02:00 +18°C° 0 mm 3 m/S 758 mmHg 82%
    03:00 +18°C° 0 mm 2 m/S 757 mmHg 82%
    04:00 +18°C° 0 mm 2 m/S 757 mmHg 81%
    05:00 +19°C° 0 mm 2 m/S 757 mmHg 81%
    06:00 +21°C° 0 mm 3 m/S 757 mmHg 73%
    07:00 +24°C° 0 mm 3 m/S 757 mmHg 65%
    08:00 +26°C° 0 mm 3 m/S 757 mmHg 57%
    09:00 +30°C° 0 mm 3 m/S 757 mmHg 48%
    10:00 +34°C° 0 mm 3 m/S 756 mmHg 38%
    11:00 +38°C° 0 mm 3 m/S 756 mmHg 29%
    12:00 +37°C° 0 mm 4 m/S 755 mmHg 32%
    13:00 +36°C° 0 mm 5 m/S 755 mmHg 35%
    14:00 +36°C° 0 mm 5 m/S 754 mmHg 38%
    15:00 +34°C° 0 mm 4 m/S 754 mmHg 42%
    16:00 +32°C° 0 mm 4 m/S 754 mmHg 47%
    17:00 +29°C° 0 mm 3 m/S 753 mmHg 51%
    18:00 +27°C° 0 mm 3 m/S 754 mmHg 57%
    19:00 +25°C° 0 mm 2 m/S 754 mmHg 63%
    20:00 +24°C° 0 mm 2 m/S 755 mmHg 69%
    21:00 +23°C° 0 mm 1 m/S 754 mmHg 71%
    22:00 +22°C° 0 mm 1 m/S 754 mmHg 73%
    23:00 +22°C° 0 mm 1 m/S 754 mmHg 75%

    21 Januar, Montag

    Zeit Temperatur Niederschläge Wind Luftdruck Luftfeuchtigkeit
    00:00 +22°C° 0 mm 1 m/S 754 mmHg 77%
    01:00 +21°C° 0 mm 1 m/S 753 mmHg 78%
    02:00 +19°C° 0 mm 0 m/S 753 mmHg 79%
    03:00 +21°C° 0 mm 1 m/S 752 mmHg 80%
    04:00 +21°C° 0 mm 1 m/S 752 mmHg 81%
    05:00 +20°C° 0 mm 1 m/S 752 mmHg 82%
    06:00 +22°C° 0 mm 1 m/S 752 mmHg 74%
    07:00 +24°C° 0 mm 2 m/S 753 mmHg 66%
    08:00 +26°C° 0 mm 2 m/S 753 mmHg 58%
    09:00 +29°C° 0 mm 2 m/S 753 mmHg 52%
    10:00 +31°C° 0 mm 3 m/S 752 mmHg 46%
    11:00 +34°C° 0 mm 3 m/S 752 mmHg 40%
    12:00 +33°C° 0 mm 4 m/S 752 mmHg 44%
    13:00 +30°C° 0 mm 6 m/S 752 mmHg 47%
    14:00 +29°C° 0 mm 7 m/S 751 mmHg 51%
    15:00 +28°C° 0 mm 7 m/S 752 mmHg 52%
    16:00 +27°C° 0 mm 6 m/S 752 mmHg 54%
    17:00 +24°C° 0 mm 6 m/S 752 mmHg 55%
    18:00 +23°C° 0 mm 5 m/S 753 mmHg 61%
    19:00 +22°C° 0 mm 4 m/S 754 mmHg 67%
    20:00 +20°C° 0 mm 4 m/S 755 mmHg 72%
    21:00 +20°C° 0 mm 4 m/S 755 mmHg 72%
    22:00 +20°C° 0 mm 4 m/S 755 mmHg 71%
    23:00 +20°C° 0 mm 4 m/S 755 mmHg 71%

    22 Januar, Dienstag

    Zeit Temperatur Niederschläge Wind Luftdruck Luftfeuchtigkeit
    00:00 +20°C° 0.1 mm 3 m/S 755 mmHg 73%
    01:00 +20°C° 0.1 mm 3 m/S 754 mmHg 74%
    02:00 +19°C° 0.1 mm 3 m/S 754 mmHg 76%
    03:00 +19°C° 0.2 mm 4 m/S 754 mmHg 78%
    04:00 +19°C° 0.2 mm 5 m/S 754 mmHg 80%
    05:00 +19°C° 0.2 mm 6 m/S 754 mmHg 82%
    06:00 +19°C° 0.2 mm 6 m/S 755 mmHg 82%
    07:00 +19°C° 0.2 mm 6 m/S 755 mmHg 82%
    08:00 +19°C° 0.2 mm 6 m/S 756 mmHg 82%
    09:00 +21°C° 0 mm 6 m/S 756 mmHg 74%
    10:00 +22°C° 0 mm 6 m/S 756 mmHg 67%
    11:00 +24°C° 0 mm 6 m/S 756 mmHg 60%
    12:00 +24°C° 0 mm 7 m/S 755 mmHg 59%
    13:00 +24°C° 0 mm 7 m/S 755 mmHg 58%
    14:00 +24°C° 0 mm 8 m/S 755 mmHg 57%
    15:00 +23°C° 0 mm 8 m/S 755 mmHg 61%
    16:00 +23°C° 0 mm 8 m/S 755 mmHg 64%
    17:00 +22°C° 0 mm 8 m/S 755 mmHg 67%
    18:00 +21°C° 0 mm 7 m/S 755 mmHg 71%
    19:00 +21°C° 0 mm 7 m/S 756 mmHg 75%
    20:00 +20°C° 0 mm 7 m/S 756 mmHg 79%
    21:00 +20°C° 0 mm 7 m/S 756 mmHg 80%
    22:00 +20°C° 0 mm 7 m/S 755 mmHg 82%
    23:00 +20°C° 0 mm 8 m/S 755 mmHg 83%

    23 Januar, Mittwoch

    Zeit Temperatur Niederschläge Wind Luftdruck Luftfeuchtigkeit
    00:00 +20°C° 0.2 mm 7 m/S 755 mmHg 85%
    01:00 +20°C° 0.2 mm 7 m/S 754 mmHg 86%
    02:00 +20°C° 0.2 mm 7 m/S 754 mmHg 88%
    03:00 +20°C° 0.1 mm 7 m/S 754 mmHg 88%
    04:00 +20°C° 0.1 mm 6 m/S 754 mmHg 88%
    05:00 +20°C° 0.1 mm 6 m/S 753 mmHg 88%
    06:00 +20°C° 0 mm 5 m/S 753 mmHg 87%
    07:00 +21°C° 0 mm 4 m/S 753 mmHg 87%
    08:00 +21°C° 0 mm 3 m/S 753 mmHg 86%
    09:00 +22°C° 0 mm 3 m/S 753 mmHg 83%
    10:00 +22°C° 0 mm 3 m/S 752 mmHg 81%
    11:00 +24°C° 0 mm 3 m/S 752 mmHg 78%
    12:00 +25°C° 0 mm 4 m/S 751 mmHg 73%
    13:00 +26°C° 0 mm 4 m/S 751 mmHg 68%
    14:00 +28°C° 0 mm 5 m/S 750 mmHg 63%
    15:00 +27°C° 0 mm 5 m/S 750 mmHg 67%
    16:00 +26°C° 0 mm 6 m/S 749 mmHg 72%
    17:00 +24°C° 0 mm 6 m/S 749 mmHg 76%
    18:00 +23°C° 0.7 mm 4 m/S 749 mmHg 81%
    19:00 +22°C° 0.7 mm 3 m/S 750 mmHg 86%
    20:00 +22°C° 0.7 mm 1 m/S 750 mmHg 92%
    21:00 +21°C° 0.3 mm 2 m/S 750 mmHg 90%
    22:00 +20°C° 0.3 mm 3 m/S 750 mmHg 88%
    23:00 +20°C° 0.3 mm 4 m/S 750 mmHg 86%
    Mehr zeigen